CFG850 EDDM-LDDU

Flight info

Callsign CFG850
Flight time 1h 8m
Altitude 37000
Route VAVOR3S/26L VAVOR M867 RADIZ DCT GIMIX DCT ALIVO DCT SIPAL
Aircraft A321/M-SDE3FGHIRWY/LB1

Departure

Time 2026-05-07 15:01
Airport Munich Airport (EDDM)

Arrival

Time 2026-05-07 16:09
Airport Dubrovnik Ruđer Bošković Airport (LDDU)
Time Latitude Longitude Altitude Speed Heading
2026-05-07 14:31 48.35457 11.79315 1475 ft 0 kts 263°
2026-05-07 14:51 48.35460 11.79348 1475 ft 4 kts 263°
2026-05-07 14:51 48.35463 11.79385 1477 ft 2 kts 263°
2026-05-07 14:51 48.35467 11.79419 1478 ft 4 kts 240°
2026-05-07 14:52 48.35485 11.79444 1479 ft 4 kts 192°
2026-05-07 14:52 48.35509 11.79445 1475 ft 4 kts 173°
2026-05-07 14:52 48.35519 11.79443 1471 ft 0 kts 173°
2026-05-07 14:54 48.35513 11.79444 1476 ft 3 kts 173°
2026-05-07 14:55 48.35487 11.79460 1483 ft 6 kts 148°
2026-05-07 14:55 48.35453 11.79512 1474 ft 8 kts 129°
2026-05-07 14:55 48.35410 11.79583 1485 ft 9 kts 144°
2026-05-07 14:55 48.35353 11.79608 1473 ft 10 kts 172°
2026-05-07 14:56 48.35265 11.79624 1485 ft 14 kts 173°
2026-05-07 14:56 48.35173 11.79639 1479 ft 13 kts 173°
2026-05-07 14:56 48.35085 11.79655 1475 ft 15 kts 173°
2026-05-07 14:56 48.34975 11.79674 1474 ft 16 kts 174°
2026-05-07 14:57 48.34886 11.79689 1485 ft 11 kts 173°
2026-05-07 14:57 48.34818 11.79720 1481 ft 10 kts 135°
2026-05-07 14:57 48.34814 11.79846 1482 ft 13 kts 84°
2026-05-07 14:57 48.34824 11.79979 1485 ft 12 kts 83°
2026-05-07 14:58 48.34830 11.80102 1485 ft 11 kts 97°
2026-05-07 14:58 48.34794 11.80195 1479 ft 10 kts 129°
2026-05-07 14:58 48.34737 11.80240 1478 ft 9 kts 170°
2026-05-07 14:58 48.34672 11.80253 1479 ft 9 kts 173°
2026-05-07 14:59 48.34625 11.80261 1475 ft 7 kts 173°
2026-05-07 14:59 48.34590 11.80268 1483 ft 2 kts 173°
2026-05-07 14:59 48.34579 11.80270 1475 ft 7 kts 173°
2026-05-07 14:59 48.34513 11.80276 1474 ft 8 kts 185°
2026-05-07 15:00 48.34470 11.80242 1485 ft 6 kts 227°
2026-05-07 15:00 48.34461 11.80195 1479 ft 7 kts 258°
2026-05-07 15:00 48.34438 11.79910 1483 ft 61 kts 263°
2026-05-07 15:00 48.34364 11.78956 1481 ft 121 kts 263°
2026-05-07 15:01 48.34249 11.77460 1480 ft 165 kts 263°
2026-05-07 15:01 48.34106 11.75659 1838 ft 175 kts 265°
2026-05-07 15:01 48.33973 11.73833 2505 ft 175 kts 266°
2026-05-07 15:01 48.33711 11.72011 2928 ft 191 kts 245°
2026-05-07 15:02 48.32625 11.70694 3128 ft 218 kts 199°
2026-05-07 15:02 48.31091 11.70360 3651 ft 226 kts 185°
2026-05-07 15:02 48.29508 11.70414 4366 ft 231 kts 174°
2026-05-07 15:02 48.27994 11.71322 5006 ft 243 kts 149°
2026-05-07 15:03 48.26576 11.72894 5345 ft 269 kts 146°
2026-05-07 15:03 48.24992 11.74590 5966 ft 281 kts 147°
2026-05-07 15:03 48.23372 11.76267 6797 ft 284 kts 148°
2026-05-07 15:03 48.21735 11.77940 7594 ft 287 kts 148°
2026-05-07 15:04 48.20069 11.79627 8412 ft 290 kts 148°
2026-05-07 15:04 48.18409 11.81368 9242 ft 294 kts 143°
2026-05-07 15:04 48.16971 11.83579 10048 ft 300 kts 131°
2026-05-07 15:04 48.15628 11.86024 10448 ft 319 kts 131°
2026-05-07 15:05 48.14146 11.88712 10699 ft 341 kts 131°
2026-05-07 15:05 48.12619 11.91487 11286 ft 350 kts 131°
2026-05-07 15:05 48.11059 11.94321 12015 ft 354 kts 132°
2026-05-07 15:05 48.09481 11.97183 12751 ft 359 kts 132°
2026-05-07 15:06 48.07896 12.00022 13474 ft 363 kts 135°
2026-05-07 15:06 48.06037 12.02580 14129 ft 364 kts 146°
2026-05-07 15:06 48.03947 12.04740 14783 ft 367 kts 149°
2026-05-07 15:06 48.01830 12.06891 15457 ft 370 kts 149°
2026-05-07 15:07 47.99693 12.09063 16123 ft 372 kts 149°
2026-05-07 15:07 47.97542 12.11248 16792 ft 375 kts 149°
2026-05-07 15:07 47.95375 12.13446 17427 ft 379 kts 148°
2026-05-07 15:07 47.93204 12.15713 18032 ft 383 kts 144°
2026-05-07 15:08 47.91154 12.18291 18586 ft 388 kts 142°
2026-05-07 15:08 47.89091 12.20905 19138 ft 391 kts 142°
2026-05-07 15:08 47.87012 12.23529 19661 ft 394 kts 142°
2026-05-07 15:08 47.84909 12.26169 20193 ft 397 kts 142°
2026-05-07 15:09 47.82787 12.28824 20712 ft 400 kts 142°
2026-05-07 15:09 47.80651 12.31496 21217 ft 403 kts 142°
2026-05-07 15:09 47.78502 12.34182 21729 ft 406 kts 142°
2026-05-07 15:09 47.76331 12.36884 22233 ft 409 kts 142°
2026-05-07 15:10 47.74139 12.39610 22753 ft 412 kts 141°
2026-05-07 15:10 47.71937 12.42354 23240 ft 415 kts 141°
2026-05-07 15:10 47.69715 12.45119 23701 ft 418 kts 141°
2026-05-07 15:10 47.67479 12.47895 24109 ft 420 kts 142°
2026-05-07 15:11 47.65225 12.50678 24541 ft 422 kts 142°
2026-05-07 15:11 47.62963 12.53462 24977 ft 424 kts 142°
2026-05-07 15:11 47.60660 12.56186 25400 ft 425 kts 144°
2026-05-07 15:11 47.58292 12.58821 25856 ft 426 kts 146°
2026-05-07 15:12 47.55887 12.61398 26310 ft 427 kts 146°
2026-05-07 15:12 47.53463 12.63959 26779 ft 429 kts 147°
2026-05-07 15:12 47.51037 12.66525 26984 ft 428 kts 147°
2026-05-07 15:12 47.48623 12.69103 27026 ft 427 kts 146°
2026-05-07 15:13 47.46222 12.71694 27024 ft 427 kts 146°
2026-05-07 15:13 47.43830 12.74294 27027 ft 427 kts 146°
2026-05-07 15:13 47.41433 12.76907 27395 ft 430 kts 146°
2026-05-07 15:13 47.39016 12.79530 27828 ft 432 kts 146°
2026-05-07 15:14 47.37410 12.81266 28122 ft 433 kts 146°
2026-05-07 15:14 47.34973 12.83899 28555 ft 435 kts 146°
2026-05-07 15:14 47.32523 12.86546 28987 ft 437 kts 147°
2026-05-07 15:14 47.30066 12.89199 29394 ft 439 kts 147°
2026-05-07 15:15 47.27590 12.91861 29778 ft 442 kts 147°
2026-05-07 15:15 47.25104 12.94530 30147 ft 443 kts 147°
2026-05-07 15:15 47.22607 12.97211 30498 ft 444 kts 147°
2026-05-07 15:15 47.20102 12.99900 30768 ft 447 kts 147°
2026-05-07 15:16 47.17584 13.02599 31056 ft 450 kts 147°
2026-05-07 15:16 47.15053 13.05308 31423 ft 450 kts 147°
2026-05-07 15:16 47.12514 13.08017 31777 ft 451 kts 148°
2026-05-07 15:16 47.09970 13.10724 32149 ft 452 kts 148°
2026-05-07 15:17 47.07424 13.13431 32479 ft 453 kts 148°
2026-05-07 15:17 47.04869 13.16150 32786 ft 454 kts 148°
2026-05-07 15:17 47.02307 13.18878 33072 ft 456 kts 148°
2026-05-07 15:17 46.99739 13.21610 33372 ft 458 kts 149°
2026-05-07 15:18 46.97166 13.24339 33709 ft 458 kts 149°
2026-05-07 15:18 46.94570 13.27084 34053 ft 459 kts 149°
2026-05-07 15:18 46.91981 13.29818 34365 ft 459 kts 149°
2026-05-07 15:18 46.89397 13.32551 34689 ft 459 kts 149°
2026-05-07 15:19 46.86817 13.35282 35007 ft 458 kts 149°
2026-05-07 15:19 46.84232 13.38015 35324 ft 458 kts 149°
2026-05-07 15:19 46.81651 13.40737 35628 ft 458 kts 149°
2026-05-07 15:19 46.79060 13.43456 35885 ft 458 kts 149°
2026-05-07 15:20 46.76476 13.46163 36108 ft 459 kts 149°
2026-05-07 15:20 46.73876 13.48894 36406 ft 459 kts 149°
2026-05-07 15:20 46.71285 13.51613 36672 ft 459 kts 149°
2026-05-07 15:20 46.68694 13.54325 36923 ft 459 kts 149°
2026-05-07 15:21 46.63497 13.59750 36955 ft 459 kts 150°
2026-05-07 15:21 46.58343 13.65121 36951 ft 459 kts 150°
2026-05-07 15:22 46.53153 13.70514 36954 ft 459 kts 150°
2026-05-07 15:22 46.47956 13.75929 36951 ft 460 kts 150°
2026-05-07 15:23 46.42769 13.81359 36939 ft 461 kts 150°
2026-05-07 15:23 46.37582 13.86786 36953 ft 460 kts 150°
2026-05-07 15:24 46.32384 13.92211 36950 ft 460 kts 150°
2026-05-07 15:24 46.27185 13.97614 36982 ft 460 kts 150°
2026-05-07 15:25 46.21981 14.02990 36985 ft 460 kts 150°
2026-05-07 15:25 46.16786 14.08358 36948 ft 458 kts 150°
2026-05-07 15:26 46.11604 14.13700 36962 ft 458 kts 150°
2026-05-07 15:26 46.06418 14.19037 36957 ft 458 kts 151°
2026-05-07 15:27 46.01241 14.24349 36963 ft 457 kts 151°
2026-05-07 15:27 45.96053 14.29652 36971 ft 458 kts 151°
2026-05-07 15:28 45.90857 14.34946 36958 ft 458 kts 151°
2026-05-07 15:28 45.85670 14.40235 36978 ft 457 kts 151°
2026-05-07 15:29 45.80483 14.45523 36998 ft 457 kts 151°
2026-05-07 15:29 45.75297 14.50788 37000 ft 456 kts 151°
2026-05-07 15:30 45.70114 14.56034 37008 ft 456 kts 151°
2026-05-07 15:30 45.64929 14.61258 37008 ft 456 kts 151°
2026-05-07 15:31 45.59749 14.66472 36982 ft 456 kts 152°
2026-05-07 15:31 45.54565 14.71683 36988 ft 456 kts 152°
2026-05-07 15:32 45.49413 14.76864 37001 ft 456 kts 152°
2026-05-07 15:32 45.44271 14.82148 37004 ft 456 kts 151°
2026-05-07 15:33 45.39128 14.87468 37001 ft 457 kts 151°
2026-05-07 15:33 45.33979 14.92745 36992 ft 456 kts 151°
2026-05-07 15:34 45.28820 14.97991 37003 ft 456 kts 151°
2026-05-07 15:34 45.23656 15.03234 37000 ft 456 kts 151°
2026-05-07 15:35 45.18493 15.08476 37010 ft 456 kts 151°
2026-05-07 15:35 45.13332 15.13710 36999 ft 456 kts 151°
2026-05-07 15:36 45.08169 15.18932 37008 ft 456 kts 151°
2026-05-07 15:36 45.03006 15.24130 37008 ft 456 kts 151°
2026-05-07 15:37 44.97846 15.29329 37006 ft 456 kts 151°
2026-05-07 15:37 44.92685 15.34526 36990 ft 456 kts 151°
2026-05-07 15:38 44.87509 15.39703 36985 ft 456 kts 151°
2026-05-07 15:38 44.82340 15.44859 37004 ft 456 kts 151°
2026-05-07 15:39 44.77166 15.50020 37018 ft 455 kts 151°
2026-05-07 15:39 44.72002 15.55172 37021 ft 455 kts 151°
2026-05-07 15:40 44.66827 15.60302 37010 ft 455 kts 151°
2026-05-07 15:40 44.61642 15.65425 36993 ft 456 kts 151°
2026-05-07 15:41 44.56456 15.70553 37019 ft 456 kts 151°
2026-05-07 15:41 44.51314 15.75633 37033 ft 456 kts 151°
2026-05-07 15:42 44.46122 15.80738 37020 ft 456 kts 151°
2026-05-07 15:42 44.40935 15.85827 37026 ft 456 kts 151°
2026-05-07 15:43 44.35735 15.90920 37012 ft 457 kts 150°
2026-05-07 15:43 44.30531 15.96007 37024 ft 457 kts 150°
2026-05-07 15:44 44.25319 16.01097 37044 ft 457 kts 150°
2026-05-07 15:44 44.20107 16.06175 37045 ft 457 kts 151°
2026-05-07 15:45 44.14880 16.11235 37043 ft 457 kts 151°
2026-05-07 15:45 44.09649 16.16291 37020 ft 458 kts 151°
2026-05-07 15:46 44.01803 16.23876 37030 ft 459 kts 151°
2026-05-07 15:47 43.96555 16.28928 37039 ft 459 kts 151°
2026-05-07 15:47 43.91307 16.33980 37048 ft 460 kts 151°
2026-05-07 15:47 43.88678 16.36506 36945 ft 459 kts 151°
2026-05-07 15:48 43.86052 16.39028 36356 ft 460 kts 151°
2026-05-07 15:48 43.83460 16.41509 35760 ft 459 kts 152°
2026-05-07 15:48 43.80790 16.44061 35036 ft 462 kts 152°
2026-05-07 15:48 43.78171 16.46556 34236 ft 467 kts 152°
2026-05-07 15:49 43.75471 16.49122 33217 ft 474 kts 152°
2026-05-07 15:49 43.72752 16.51709 32291 ft 478 kts 152°
2026-05-07 15:49 43.69992 16.54340 31286 ft 482 kts 152°
2026-05-07 15:49 43.67226 16.56982 30418 ft 484 kts 152°
2026-05-07 15:50 43.64479 16.59605 29780 ft 479 kts 152°
2026-05-07 15:50 43.61742 16.62212 29120 ft 474 kts 152°
2026-05-07 15:50 43.59040 16.64775 28472 ft 470 kts 152°
2026-05-07 15:50 43.56357 16.67315 27847 ft 465 kts 152°
2026-05-07 15:51 43.53703 16.69826 27235 ft 461 kts 152°
2026-05-07 15:51 43.51080 16.72305 26613 ft 455 kts 152°
2026-05-07 15:51 43.48480 16.74759 26007 ft 450 kts 152°
2026-05-07 15:51 43.45905 16.77185 25418 ft 446 kts 152°
2026-05-07 15:52 43.43355 16.79582 24823 ft 442 kts 152°
2026-05-07 15:52 43.40824 16.81959 24249 ft 438 kts 152°
2026-05-07 15:52 43.38321 16.84313 23679 ft 434 kts 152°
2026-05-07 15:52 43.35840 16.86646 23088 ft 429 kts 152°
2026-05-07 15:53 43.33397 16.88943 22560 ft 423 kts 151°
2026-05-07 15:53 43.30988 16.91204 22095 ft 415 kts 151°
2026-05-07 15:53 43.28618 16.93425 21623 ft 408 kts 151°
2026-05-07 15:53 43.26295 16.95598 21155 ft 401 kts 151°
2026-05-07 15:54 43.24008 16.97736 20711 ft 395 kts 151°
2026-05-07 15:54 43.21756 16.99836 20256 ft 389 kts 151°
2026-05-07 15:54 43.19531 17.01904 19817 ft 384 kts 151°
2026-05-07 15:54 43.17337 17.03941 19363 ft 380 kts 151°
2026-05-07 15:55 43.15180 17.06005 18905 ft 378 kts 146°
2026-05-07 15:55 43.13259 17.08475 18460 ft 381 kts 135°
2026-05-07 15:55 43.11676 17.11394 17948 ft 382 kts 127°
2026-05-07 15:55 43.10217 17.14411 17483 ft 379 kts 127°
2026-05-07 15:56 43.08759 17.17401 17011 ft 376 kts 128°
2026-05-07 15:56 43.07306 17.20361 16547 ft 373 kts 128°
2026-05-07 15:56 43.05864 17.23292 16070 ft 371 kts 128°
2026-05-07 15:56 43.04426 17.26207 15604 ft 368 kts 127°
2026-05-07 15:57 43.02994 17.29105 15172 ft 368 kts 127°
2026-05-07 15:57 43.01567 17.31992 15032 ft 373 kts 127°
2026-05-07 15:57 43.00091 17.34978 14510 ft 378 kts 127°
2026-05-07 15:57 42.98625 17.37947 13700 ft 380 kts 127°
2026-05-07 15:58 42.97169 17.40904 13186 ft 372 kts 127°
2026-05-07 15:58 42.95718 17.43849 12712 ft 367 kts 127°
2026-05-07 15:58 42.94315 17.46687 12231 ft 364 kts 127°
2026-05-07 15:58 42.92903 17.49533 11757 ft 360 kts 127°
2026-05-07 15:59 42.91502 17.52353 11296 ft 357 kts 127°
2026-05-07 15:59 42.90052 17.54978 11155 ft 335 kts 136°
2026-05-07 15:59 42.88486 17.57181 11022 ft 312 kts 138°
2026-05-07 15:59 42.87006 17.59248 10726 ft 300 kts 138°
2026-05-07 16:00 42.85561 17.61261 10436 ft 297 kts 138°
2026-05-07 16:00 42.84123 17.63262 10174 ft 293 kts 139°
2026-05-07 16:00 42.82701 17.65239 10039 ft 291 kts 139°
2026-05-07 16:00 42.81285 17.67201 9712 ft 292 kts 139°
2026-05-07 16:01 42.79862 17.69173 9105 ft 290 kts 138°
2026-05-07 16:01 42.78462 17.71120 8600 ft 285 kts 138°
2026-05-07 16:01 42.77220 17.73216 8103 ft 289 kts 124°
2026-05-07 16:01 42.76264 17.75630 7712 ft 288 kts 121°
2026-05-07 16:02 42.75338 17.78019 7393 ft 284 kts 121°
2026-05-07 16:02 42.74411 17.80393 7034 ft 283 kts 121°
2026-05-07 16:02 42.73482 17.82738 6623 ft 279 kts 122°
2026-05-07 16:02 42.72569 17.85059 6039 ft 277 kts 121°
2026-05-07 16:03 42.71670 17.87359 5471 ft 274 kts 121°
2026-05-07 16:03 42.71079 17.88871 5135 ft 271 kts 121°
2026-05-07 16:03 42.70218 17.91075 4900 ft 256 kts 121°
2026-05-07 16:03 42.69410 17.93142 4765 ft 239 kts 121°
2026-05-07 16:04 42.68647 17.95087 4661 ft 230 kts 121°
2026-05-07 16:04 42.67896 17.96997 4564 ft 229 kts 122°
2026-05-07 16:04 42.67149 17.98900 4465 ft 228 kts 121°
2026-05-07 16:04 42.66405 18.00795 4359 ft 227 kts 122°
2026-05-07 16:05 42.65664 18.02680 4119 ft 225 kts 121°
2026-05-07 16:05 42.64930 18.04548 3852 ft 223 kts 121°
2026-05-07 16:05 42.64210 18.06378 3557 ft 218 kts 120°
2026-05-07 16:05 42.63504 18.08173 3270 ft 213 kts 121°
2026-05-07 16:06 42.62824 18.09899 2999 ft 200 kts 121°
2026-05-07 16:06 42.62191 18.11506 2749 ft 187 kts 120°
2026-05-07 16:06 42.61598 18.13009 2510 ft 172 kts 119°
2026-05-07 16:06 42.61059 18.14375 2276 ft 154 kts 120°
2026-05-07 16:07 42.60577 18.15596 2076 ft 142 kts 120°
2026-05-07 16:07 42.60116 18.16762 1889 ft 139 kts 119°
2026-05-07 16:07 42.59667 18.17899 1713 ft 136 kts 120°
2026-05-07 16:07 42.59219 18.19035 1531 ft 136 kts 120°
2026-05-07 16:08 42.58773 18.20160 1356 ft 135 kts 120°
2026-05-07 16:08 42.58327 18.21284 1146 ft 136 kts 120°
2026-05-07 16:08 42.57878 18.22415 965 ft 136 kts 121°
2026-05-07 16:08 42.57434 18.23540 787 ft 135 kts 120°
2026-05-07 16:09 42.56992 18.24666 590 ft 136 kts 121°
2026-05-07 16:09 42.56570 18.25729 536 ft 114 kts 115°
2026-05-07 16:09 42.56323 18.26351 533 ft 45 kts 119°
2026-05-07 16:09 42.56239 18.26566 534 ft 10 kts 118°
2026-05-07 16:10 42.56196 18.26634 534 ft 9 kts 160°
2026-05-07 16:10 42.56146 18.26595 534 ft 8 kts 235°
2026-05-07 16:10 42.56120 18.26527 534 ft 8 kts 242°
2026-05-07 16:10 42.56102 18.26465 534 ft 7 kts 263°
2026-05-07 16:11 42.56113 18.26412 534 ft 6 kts 295°
2026-05-07 16:11 42.56131 18.26365 534 ft 5 kts 298°
2026-05-07 16:11 42.56125 18.26334 534 ft 3 kts 221°
2026-05-07 16:11 42.56110 18.26320 534 ft 2 kts 211°
2026-05-07 16:12 42.56097 18.26309 534 ft 2 kts 210°
2026-05-07 16:12 42.56092 18.26306 534 ft 0 kts 210°